[[{"header":{"parameterUnit":"m.s-1","parameterCategory":1,"la1":30.2991,"la2":30.254,"lo1":-89.0895,"lo2":-89.0444,"dy":0.0017,"dx":0.0017,"nx":28,"ny":28,"refTime":"2023-03-27T15:00:00:Z","depth":0,"parameterNumber":2,"parameterNumberName":"U-component_of_WINDS"},"data":[0,0,0,0,0,0,0,0,0,0,0,0,0,0,0,0,0,0,0,0,0,0,0,0,0,0,0,0,0,0,0,0,0,0,0,0,0,0,0,0,0,0,0,0,0,0,0,0,0,0,0,0,0,0,0,0,0,0,2.0,2.0,0,2.004,2.0041,2.0041,2.0045,2.0045,2.0044,2.0044,2.0089,2.009,2.0092,0,0,0,0,0,0,0,0,0,0,0,0,0,1.9929,1.993,2.0,2.0,2.0001,2.004,2.0041,2.0042,2.0045,2.0045,2.0044,2.0044,2.0088,2.009,2.0092,0,0,0,0,0,0,0,0,0,0,0,0,0,1.9963,1.993,1.9999,2.0007,2.0008,2.004,2.0041,2.0042,2.0046,2.0045,2.0044,2.0044,2.0087,2.009,2.0092,2.012,0,0,2.0099,2.01,0,0,0,0,0,0,0,0,1.9961,1.9966,2.0006,2.0007,2.0008,2.0037,2.0032,2.0068,2.0046,2.0031,2.0044,2.0043,2.0072,2.0076,2.0085,2.0122,2.0124,2.01,2.0101,2.0102,2.0103,0,0,0,0,0,0,0,1.9959,1.9964,2.0016,2.0006,2.0008,2.001,2.0014,2.0039,2.0055,2.0033,2.0033,2.0038,2.0073,2.0083,2.0086,2.0125,2.01,2.0102,2.0103,2.0104,2.0189,2.019,0,0,0,0,0,0,1.9955,1.9962,2.0015,2.0017,1.9983,2.0012,2.0016,2.0028,2.0055,2.0058,2.0038,2.0038,2.0079,2.0083,2.0088,2.0123,2.0102,2.0104,2.0106,2.0188,2.0189,2.019,0,0,0,0,0,0,1.9953,1.9959,2.0013,1.999,1.9997,2.0014,2.0027,2.003,2.0039,2.0059,2.0062,2.0045,2.0079,2.0084,2.0112,2.0125,2.0105,2.0108,2.0187,2.0189,2.019,2.0194,0,0,0,0,0,0,1.9951,1.9959,1.9968,1.999,1.9998,2.0035,2.0028,2.0031,2.0043,2.0043,2.0066,2.007,2.0078,2.0109,2.0115,2.0128,2.0109,2.0186,2.0188,2.0189,2.0193,2.0195,2.0197,0,0,0,0,0,1.9949,1.9968,1.9969,1.9975,2.001,2.0036,2.0041,2.005,2.0044,2.0055,2.0068,2.0069,2.0123,2.0111,2.0118,2.0132,2.0186,2.0188,2.0189,2.0192,2.0195,2.0197,0,0,0,0,0,0,1.9948,1.9971,1.9972,1.9999,2.0015,2.0037,2.005,2.0052,2.0072,2.0071,2.0082,2.0087,2.0115,2.0127,2.0114,2.0162,2.0154,2.0157,2.0153,2.0156,2.0158,2.0155,2.0111,0,0,0,0,0,1.995,1.9969,1.9988,2.001,2.0018,2.0033,2.0045,2.005,2.0068,2.0076,2.009,2.0109,2.013,2.0144,2.0164,2.0195,2.0201,2.0208,2.021,2.0212,2.0215,2.0234,2.0238,2.0196,2.0196,2.0196,0,0,1.9957,1.9972,1.9982,2.001,2.0024,2.0044,2.0039,2.006,2.0075,2.0079,2.0106,2.0118,2.014,2.017,2.0183,2.018,2.0228,2.0214,2.0216,2.0217,2.0236,2.024,2.0243,2.0198,2.0197,2.0197,0,0,1.9978,1.999,2.0011,2.0025,2.0046,2.0055,2.006,2.0082,2.009,2.0117,2.0122,2.0141,2.0177,2.0192,2.0205,2.0235,2.0237,2.0241,2.0253,2.0271,2.0275,2.0278,2.029,2.0294,2.0244,2.0244,2.0244,0,1.9983,2.0012,2.0021,2.0042,2.0055,2.006,2.0082,2.0095,2.0122,2.0131,2.0127,2.0173,2.0188,2.0223,2.023,2.024,2.0247,2.0239,2.0273,2.0276,2.0279,2.0291,2.0295,2.0245,2.0245,2.0245,2.0244,0,2.0018,2.0038,2.0053,2.0078,2.0093,2.0114,2.0128,2.0142,2.0147,2.0158,2.0188,2.0206,2.0231,2.024,2.0245,2.0275,2.0273,2.0271,2.0263,2.0284,2.0295,2.0299,2.0245,2.0245,2.0245,2.0245,0,0,2.0038,2.007,2.0075,2.0088,2.0112,2.0129,2.0151,2.0175,2.0188,2.0207,2.0227,2.0259,2.0257,2.0272,2.0279,2.0295,2.032,2.0292,2.0292,2.0297,2.0357,2.0358,2.0363,2.0322,2.0322,2.0323,2.0355,0,2.0063,2.0102,2.0112,2.0146,2.0166,2.0172,2.0192,2.021,2.0222,2.0242,2.0255,2.0277,2.0273,2.0282,2.0299,2.0313,2.0332,2.0311,2.0342,2.0343,2.0336,2.0369,2.037,2.04,2.036,2.036,2.0361,0,2.0097,2.0116,2.0152,2.0176,2.0185,2.0202,2.0226,2.0245,2.0266,2.0274,2.0291,2.0297,2.0323,2.0314,2.0351,2.0336,2.035,2.0359,2.0361,2.0364,2.0353,2.0374,2.0409,2.0414,2.0368,2.0367,2.0367,0,2.0109,2.0145,2.0171,2.0182,2.021,2.0222,2.0235,2.0256,2.027,2.0292,2.0302,2.0326,2.034,2.036,2.0373,2.0365,2.0409,2.0401,2.0417,2.0417,2.0426,2.0426,2.0465,2.0434,2.0434,2.0434,2.0434,0,2.0136,2.0158,2.0178,2.0194,2.022,2.0232,2.0257,2.027,2.0289,2.031,2.0317,2.0336,2.0352,2.0374,2.0385,2.0415,2.0421,2.0429,2.0431,2.0428,2.0427,2.0437,2.0436,2.0435,2.0435,2.0435,2.0435,0,2.0153,2.0167,2.0197,2.0222,2.0229,2.0247,2.0268,2.0285,2.0298,2.0324,2.033,2.035,2.0377,2.0392,2.0425,2.0433,2.0466,2.0468,2.0459,2.046,2.0476,2.0474,2.0523,2.0531,2.0495,2.0495,2.0495,0,2.0169,2.0187,2.0213,2.0227,2.024,2.0262,2.0277,2.0291,2.0307,2.0334,2.0348,2.0375,2.0397,2.044,2.0458,2.0484,2.0487,2.0502,2.0491,2.0488,2.0488,2.0487,2.0489,2.0504,2.0504,2.0504,2.0505,0,2.0197,2.0203,2.0224,2.0249,2.0267,2.0287,2.0307,2.0318,2.0336,2.0353,2.038,2.0397,2.0432,2.0459,2.0487,2.0502,2.0507,2.0508,2.0514,2.0511,2.0505,2.0509,2.0465,2.0507,2.0507,2.0507,2.0506,2.0506,2.0215,2.0231,2.0253,2.0277,2.0294,2.0313,2.033,2.0345,2.0368,2.0397,2.0404,2.0433,2.0456,2.0495,2.051,2.0534,2.0531,2.0539,2.0541,2.0543,2.0544,2.0501,2.0539,2.0539,2.0539,2.0539,2.0539,0,2.0243,2.0258,2.028,2.0308,2.0327,2.033,2.0353,2.037,2.0394,2.0416,2.0438,2.047,2.0497,2.0518,2.0546,2.0561,2.0565,2.0568,2.0568,2.0571,2.0544,2.0537,2.0566,2.0566,2.0565,2.0565,2.0565,2.0565,2.026,2.0288,2.0298,2.0335,2.035,2.0378,2.0391,2.041,2.0427,2.0462,2.0485,2.0498,2.052,2.055,2.0576,2.0582,2.0592,2.0596,2.0602,2.0576,2.0573,2.057,2.0564,2.0598,2.0598,2.0628,2.0628,2.0628]},{"header":{"parameterUnit":"m.s-1","parameterCategory":1,"la1":30.2991,"la2":30.254,"lo1":-89.0895,"lo2":-89.0444,"dy":0.0017,"dx":0.0017,"nx":28,"ny":28,"refTime":"2023-03-27T15:00:00:Z","depth":0,"parameterNumber":3,"parameterNumberName":"V-component_of_WINDS"},"data":[0,0,0,0,0,0,0,0,0,0,0,0,0,0,0,0,0,0,0,0,0,0,0,0,0,0,0,0,0,0,0,0,0,0,0,0,0,0,0,0,0,0,0,0,0,0,0,0,0,0,0,0,0,0,0,0,0,0,2.7417,2.7418,0,2.7502,2.7503,2.7504,2.7499,2.7498,2.7497,2.7496,2.7585,2.7589,2.7592,0,0,0,0,0,0,0,0,0,0,0,0,0,2.7256,2.7259,2.7417,2.7418,2.7419,2.7502,2.7503,2.7504,2.75,2.7498,2.7497,2.7495,2.7584,2.7588,2.7593,0,0,0,0,0,0,0,0,0,0,0,0,0,2.7332,2.726,2.7417,2.7427,2.7429,2.7501,2.7503,2.7504,2.75,2.7498,2.7496,2.7495,2.7583,2.7588,2.7593,2.7662,0,0,2.7609,2.7612,0,0,0,0,0,0,0,0,2.7327,2.7338,2.7424,2.7426,2.7428,2.7488,2.7479,2.7557,2.75,2.7473,2.7496,2.7494,2.7555,2.7562,2.7582,2.7666,2.767,2.761,2.7613,2.7615,2.7617,0,0,0,0,0,0,0,2.7322,2.7334,2.7451,2.7426,2.7428,2.7429,2.7437,2.7494,2.7523,2.7475,2.7475,2.7485,2.7555,2.7577,2.7584,2.7672,2.761,2.7614,2.7618,2.762,2.782,2.7822,0,0,0,0,0,0,2.7314,2.733,2.7448,2.7453,2.7372,2.7433,2.7443,2.7471,2.7522,2.7529,2.7487,2.7485,2.7569,2.7578,2.7587,2.7674,2.7615,2.762,2.7623,2.7818,2.7821,2.7823,0,0,0,0,0,0,2.7311,2.7325,2.7445,2.7391,2.7407,2.7438,2.7469,2.7474,2.7495,2.7531,2.7537,2.7503,2.7568,2.758,2.7644,2.7677,2.7622,2.7627,2.7816,2.7819,2.7822,2.7846,0,0,0,0,0,0,2.7306,2.7323,2.7349,2.7392,2.741,2.7499,2.7471,2.7477,2.7504,2.7502,2.7548,2.7554,2.7567,2.7636,2.7649,2.7683,2.7631,2.7813,2.7817,2.7821,2.7843,2.785,2.7856,0,0,0,0,0,2.73,2.7352,2.735,2.7365,2.7442,2.7501,2.7511,2.7525,2.7506,2.7533,2.7557,2.7552,2.7671,2.7643,2.7658,2.7694,2.7811,2.7816,2.7821,2.784,2.7849,2.7856,0,0,0,0,0,0,2.7313,2.7358,2.7356,2.7424,2.7458,2.75,2.7534,2.7533,2.7574,2.7571,2.7587,2.7598,2.7663,2.7684,2.7652,2.7765,2.7739,2.7747,2.7748,2.7757,2.7764,2.7758,2.7636,0,0,0,0,0,2.7323,2.7366,2.7404,2.746,2.7477,2.7503,2.7529,2.7536,2.7573,2.7588,2.7616,2.7653,2.7699,2.7729,2.7773,2.7846,2.7857,2.7878,2.7884,2.789,2.7897,2.794,2.7951,2.7839,2.7839,2.7839,0,0,2.7345,2.7375,2.7402,2.7463,2.7491,2.7537,2.7515,2.7563,2.7598,2.7596,2.7659,2.7681,2.7723,2.7793,2.7825,2.7813,2.793,2.7896,2.79,2.7905,2.7946,2.7957,2.7966,2.7843,2.7842,2.7841,0,0,2.741,2.7436,2.7486,2.7515,2.7557,2.7574,2.7586,2.7629,2.7643,2.7706,2.7706,2.7749,2.7826,2.7858,2.7884,2.7962,2.7961,2.7976,2.8012,2.8054,2.8062,2.807,2.8101,2.8111,2.7983,2.7983,2.7983,0,2.7432,2.75,2.7513,2.7562,2.7591,2.759,2.7643,2.767,2.7725,2.7745,2.7731,2.783,2.7859,2.7937,2.7956,2.7977,2.7993,2.7971,2.806,2.8068,2.8076,2.8105,2.8116,2.7985,2.7985,2.7984,2.7984,0,2.7527,2.7574,2.761,2.7663,2.7695,2.7746,2.7768,2.78,2.7805,2.7824,2.789,2.7924,2.7977,2.7995,2.8001,2.8075,2.8067,2.8056,2.8031,2.8088,2.8116,2.8127,2.7987,2.7987,2.7986,2.7986,0,0,2.7601,2.7662,2.7675,2.77,2.7748,2.7786,2.7837,2.7888,2.7916,2.7954,2.8,2.8067,2.8057,2.8087,2.8096,2.8133,2.8196,2.8118,2.8119,2.8133,2.8284,2.8294,2.8306,2.8195,2.8197,2.8199,2.8281,0,2.7672,2.7763,2.7777,2.7858,2.7904,2.7905,2.7951,2.7986,2.8006,2.8048,2.807,2.8118,2.8101,2.812,2.8155,2.8181,2.8227,2.8175,2.824,2.8242,2.8231,2.832,2.833,2.8406,2.8292,2.8294,2.8295,0,2.7767,2.7808,2.7894,2.7938,2.7957,2.7998,2.8047,2.8087,2.8128,2.814,2.8174,2.8179,2.8236,2.8207,2.8286,2.825,2.8278,2.8295,2.8298,2.8306,2.8273,2.8333,2.843,2.8443,2.8312,2.8311,2.831,0,2.7815,2.7892,2.7954,2.7975,2.8027,2.8056,2.808,2.8119,2.8149,2.8192,2.8213,2.8262,2.829,2.8329,2.8348,2.8325,2.8428,2.8399,2.8441,2.8441,2.8464,2.8463,2.8569,2.8478,2.8478,2.8478,2.8477,0,2.7894,2.7947,2.7977,2.8015,2.8075,2.8092,2.8151,2.8174,2.8209,2.8254,2.8257,2.8299,2.8321,2.8367,2.8383,2.8448,2.846,2.8473,2.8477,2.8474,2.8473,2.8493,2.849,2.8481,2.848,2.8479,2.8479,0,2.7959,2.798,2.8049,2.8093,2.8105,2.8148,2.8187,2.8225,2.8245,2.8301,2.8315,2.8347,2.8401,2.8424,2.8491,2.8502,2.8577,2.8576,2.8563,2.8565,2.8606,2.8603,2.8732,2.8751,2.8645,2.8646,2.8647,0,2.8008,2.8049,2.8098,2.8128,2.8152,2.82,2.8231,2.8249,2.8282,2.8333,2.8366,2.842,2.8465,2.8552,2.8582,2.8634,2.8636,2.8677,2.8644,2.864,2.864,2.8638,2.8644,2.8684,2.8685,2.8686,2.8687,0,2.8095,2.8105,2.8149,2.8199,2.8236,2.8276,2.8315,2.8339,2.8364,2.8401,2.8456,2.8491,2.8559,2.8614,2.8668,2.8694,2.8696,2.8697,2.871,2.8708,2.87,2.8708,2.8582,2.8694,2.8693,2.8693,2.8692,2.8692,2.8156,2.8193,2.8234,2.8285,2.8316,2.8353,2.8392,2.8417,2.8463,2.852,2.8528,2.8589,2.8631,2.8704,2.8732,2.8781,2.8771,2.8789,2.8794,2.8798,2.8802,2.8691,2.879,2.879,2.879,2.879,2.879,0,2.8245,2.8272,2.8318,2.8373,2.8413,2.841,2.8453,2.8488,2.854,2.858,2.8624,2.8689,2.8743,2.8778,2.8832,2.8865,2.8868,2.8879,2.8878,2.8885,2.8807,2.8791,2.8877,2.8877,2.8877,2.8877,2.8877,2.8876,2.8296,2.8361,2.8375,2.8456,2.8483,2.8541,2.8567,2.8602,2.8634,2.8706,2.8751,2.8773,2.8811,2.8869,2.892,2.8929,2.895,2.8963,2.8972,2.8899,2.889,2.8881,2.8867,2.8967,2.8967,2.9046,2.9047,2.9047]}]]